Location: Observatory Park - Geauga Park District
(41.5832°N, 81.0716°W)
Time: 08:08:15
(UTC-04:00)

Envisat - Pass Details

Date: 01 October 2021
Orbit: 764 x 766 km, 98.2° (Epoch: 20 October)

Event Time Altitude Azimuth Distance (km) Brightness Sun altitude
Rises 06:15:06 0° 17° (NNE) 3,237 6.6 -13.2°
Reaches altitude 10° 06:17:28 10° 22° (NNE) 2,306 5.9 -12.8°
Maximum altitude 06:22:27 56° 100° (E) 905 3.8 -11.8°
Drops below altitude 10° 06:27:24 10° 179° (S) 2,289 5.4 -10.9°
Sets 06:29:44 0° 183° (S) 3,211 6.1 -10.5°
